| time (UTC) | temp F | wind direction | speed knots | gust knots | rain 1hr in | rain 24hr in | rain mn in | humidity % | barometer mb |
| 20260902161603 | 72 | 0 | 0.9 | 9.6 | 0.00 | 0.00 | 0.00 | 67 | 1015.2 |
| 20260902154602 | 72 | 11 | 1.7 | 7.0 | 0.00 | 0.00 | 0.00 | 68 | 1014.9 |
| 20260902153055 | 72 | 314 | 0.9 | 6.1 | 0.00 | 0.00 | 0.00 | 69 | 1015.2 |
| 20260902151556 | 71 | 57 | 0.9 | 3.5 | 0.00 | 0.00 | 0.00 | 69 | 1015.1 |
| 20260902150052 | 71 | 0 | 0.0 | 5.2 | 0.00 | 0.00 | 0.00 | 73 | 1015.1 |
| 20260902144613 | 69 | 0 | 0.0 | 0.0 | 0.00 | 0.00 | 0.00 | 77 | 1015.2 |
| 20260902143057 | 66 | 0 | 0.0 | 0.0 | 0.00 | 0.00 | 0.00 | 83 | 1015.4 |
| 20260902141602 | 66 | 0 | 0.0 | 0.0 | 0.00 | 0.00 | 0.00 | 86 | 1015.8 |
| 20260902140100 | 65 | 0 | 0.0 | 0.0 | 0.00 | 0.00 | 0.00 | 87 | 1015.7 |
| 20260902134601 | 61 | 0 | 0.0 | 0.0 | 0.00 | 0.00 | 0.00 | 96 | 1015.6 |
| 20260902133056 | 58 | 0 | 0.0 | 0.0 | 0.00 | 0.00 | 0.00 | 99 | 1015.5 |
| 20260902131554 | 56 | 0 | 0.0 | 0.0 | 0.00 | 0.00 | 0.00 | 98 | 1015.7 |
| 20260902130052 | 55 | 0 | 0.0 | 0.0 | 0.00 | 0.00 | 0.00 | 99 | 1015.6 |
| 20260902124604 | 53 | 0 | 0.0 | 0.0 | 0.00 | 0.00 | 0.00 | 98 | 1015.3 |
| 20260902123103 | 52 | 0 | 0.0 | 0.0 | 0.00 | 0.00 | 0.00 | 98 | 1015.1 |
| 20260902121613 | 52 | 0 | 0.0 | 0.0 | 0.00 | 0.00 | 0.00 | 98 | 1015.0 |
| 20260902120108 | 52 | 0 | 0.0 | 0.0 | 0.00 | 0.00 | 0.00 | 97 | 1015.0 |
| 20260902114619 | 52 | 0 | 0.0 | 0.0 | 0.00 | 0.00 | 0.00 | 97 | 1014.8 |
| 20260902113104 | 52 | 0 | 0.0 | 0.0 | 0.00 | 0.00 | 0.00 | 96 | 1014.7 |
| 20260902111605 | 53 | 0 | 0.0 | 0.0 | 0.00 | 0.00 | 0.00 | 96 | 1014.7 |
| 20260902110110 | 54 | 0 | 0.0 | 0.9 | 0.00 | 0.00 | 0.00 | 97 | 1014.5 |
| 20260902104619 | 53 | 0 | 0.0 | 0.0 | 0.00 | 0.00 | 0.00 | 97 | 1014.7 |
| 20260902103116 | 53 | 0 | 0.0 | 0.0 | 0.00 | 0.00 | 0.00 | 96 | 1014.6 |
| 20260902101601 | 53 | 0 | 0.0 | 0.0 | 0.00 | 0.00 | 0.00 | 97 | 1014.9 |
| 20260902100101 | 54 | 0 | 0.0 | 0.0 | 0.00 | 0.00 | 0.00 | 97 | 1015.0 |
| 20260902094600 | 54 | 0 | 0.0 | 0.0 | 0.00 | 0.00 | 0.00 | 97 | 1015.0 |
| 20260902093111 | 54 | 0 | 0.0 | 1.7 | 0.00 | 0.00 | 0.00 | 97 | 1014.6 |
| 20260902091601 | 54 | 0 | 0.0 | 0.0 | 0.00 | 0.00 | 0.00 | 96 | 1014.5 |
| 20260902090101 | 54 | 0 | 0.0 | 0.0 | 0.00 | 0.00 | 0.00 | 96 | 1014.5 |
| 20260902084552 | 54 | 0 | 0.0 | 0.0 | 0.00 | 0.00 | 0.00 | 96 | 1014.6 |
| 20260902083101 | 55 | 0 | 0.0 | 0.0 | 0.00 | 0.00 | 0.00 | 96 | 1014.4 |
| 20260902081559 | 55 | 0 | 0.0 | 0.0 | 0.00 | 0.00 | 0.00 | 96 | 1014.3 |
| 20260902080054 | 55 | 0 | 0.0 | 0.0 | 0.00 | 0.00 | 0.00 | 95 | 1014.3 |
| 20260902074606 | 56 | 0 | 0.0 | 0.0 | 0.00 | 0.00 | 0.00 | 95 | 1014.2 |
| 20260902073107 | 56 | 0 | 0.0 | 0.0 | 0.00 | 0.00 | 0.00 | 95 | 1014.2 |
| 20260902071556 | 56 | 0 | 0.0 | 0.0 | 0.00 | 0.00 | 0.00 | 95 | 1014.4 |
| 20260902070107 | 57 | 0 | 0.0 | 0.0 | 0.00 | 0.00 | 0.00 | 96 | 1014.3 |
| 20260902064551 | 57 | 0 | 0.0 | 0.0 | 0.00 | 0.00 | 0.00 | 95 | 1014.4 |
| 20260902063102 | 57 | 0 | 0.0 | 0.0 | 0.00 | 0.00 | 0.00 | 95 | 1014.4 |
| 20260902061604 | 57 | 0 | 0.0 | 0.0 | 0.00 | 0.00 | 0.00 | 95 | 1014.4 |
| 20260902060116 | 57 | 0 | 0.0 | 0.0 | 0.00 | 0.00 | 0.00 | 95 | 1014.4 |
| 20260902054603 | 57 | 0 | 0.0 | 0.0 | 0.00 | 0.00 | 0.00 | 95 | 1014.3 |
| 20260902053106 | 57 | 0 | 0.0 | 0.0 | 0.00 | 0.00 | 0.00 | 95 | 1014.5 |
| 20260902051606 | 57 | 0 | 0.0 | 0.0 | 0.00 | 0.00 | 0.00 | 95 | 1014.6 |
| 20260902050055 | 57 | 0 | 0.0 | 0.0 | 0.00 | 0.00 | 0.00 | 94 | 1015.0 |
| 20260902044604 | 57 | 0 | 0.0 | 0.0 | 0.00 | 0.00 | 0.00 | 94 | 1015.0 |
| 20260902043106 | 57 | 0 | 0.0 | 0.0 | 0.00 | 0.00 | 0.00 | 94 | 1014.8 |
| 20260902041605 | 58 | 0 | 0.0 | 0.0 | 0.00 | 0.00 | 0.00 | 93 | 1014.7 |
| 20260902040108 | 58 | 0 | 0.0 | 0.0 | 0.00 | 0.00 | 0.00 | 92 | 1014.4 |
| 20260902034603 | 59 | 0 | 0.0 | 0.0 | 0.00 | 0.00 | 0.00 | 91 | 1014.5 |
| 20260902033107 | 59 | 0 | 0.0 | 0.0 | 0.00 | 0.00 | 0.00 | 92 | 1014.5 |
| 20260902031608 | 59 | 0 | 0.0 | 0.0 | 0.00 | 0.00 | 0.00 | 91 | 1014.5 |
| 20260902030051 | 60 | 0 | 0.0 | 0.0 | 0.00 | 0.00 | 0.00 | 90 | 1014.6 |
| 20260902024611 | 61 | 0 | 0.0 | 0.0 | 0.00 | 0.00 | 0.00 | 89 | 1014.5 |
| 20260902023058 | 61 | 0 | 0.0 | 0.0 | 0.00 | 0.00 | 0.00 | 89 | 1014.4 |
| 20260902021553 | 62 | 0 | 0.0 | 0.0 | 0.00 | 0.00 | 0.00 | 88 | 1014.2 |
| 20260902020059 | 63 | 0 | 0.0 | 0.0 | 0.00 | 0.00 | 0.00 | 87 | 1014.1 |
| 20260902014604 | 64 | 0 | 0.0 | 0.0 | 0.00 | 0.00 | 0.00 | 85 | 1013.9 |
| 20260902013059 | 65 | 0 | 0.0 | 0.0 | 0.00 | 0.00 | 0.00 | 81 | 1013.8 |
| 20260902011556 | 66 | 0 | 0.0 | 0.9 | 0.00 | 0.00 | 0.00 | 80 | 1013.6 |
| 20260902010105 | 68 | 0 | 0.0 | 1.7 | 0.00 | 0.00 | 0.00 | 77 | 1013.4 |
| 20260902004603 | 68 | 0 | 0.0 | 2.6 | 0.00 | 0.00 | 0.00 | 75 | 1013.4 |
| 20260902003100 | 69 | 0 | 0.0 | 0.0 | 0.00 | 0.00 | 0.00 | 75 | 1013.5 |
| 20260902001557 | 70 | 0 | 0.0 | 0.0 | 0.00 | 0.00 | 0.00 | 72 | 1013.5 |
| 20260901234613 | 72 | 0 | 0.0 | 1.7 | 0.00 | 0.00 | 0.00 | 69 | 1013.4 |
| 20260901233104 | 73 | 0 | 0.0 | 3.5 | 0.00 | 0.00 | 0.00 | 67 | 1013.4 |
| 20260901231554 | 73 | 0 | 0.9 | 3.5 | 0.00 | 0.00 | 0.00 | 63 | 1013.3 |
| 20260901230105 | 74 | 251 | 0.9 | 6.1 | 0.00 | 0.00 | 0.00 | 60 | 1013.1 |
| 20260901224601 | 75 | 0 | 0.9 | 7.0 | 0.00 | 0.00 | 0.00 | 58 | 1013.1 |
| 20260901223055 | 76 | 218 | 1.7 | 7.0 | 0.00 | 0.00 | 0.00 | 56 | 1013.1 |
| 20260901221554 | 75 | 224 | 1.7 | 10.4 | 0.00 | 0.00 | 0.00 | 58 | 1013.0 |
| 20260901220118 | 76 | 30 | 2.6 | 9.6 | 0.00 | 0.00 | 0.00 | 55 | 1012.9 |
| 20260901214557 | 76 | 0 | 2.6 | 8.7 | 0.00 | 0.00 | 0.00 | 54 | 1013.0 |
| 20260901213112 | 77 | 261 | 2.6 | 10.4 | 0.00 | 0.00 | 0.00 | 54 | 1012.8 |
| 20260901211553 | 77 | 271 | 3.5 | 12.2 | 0.00 | 0.00 | 0.00 | 55 | 1012.9 |
| 20260901210051 | 78 | 217 | 4.3 | 9.6 | 0.00 | 0.00 | 0.00 | 52 | 1013.0 |
| 20260901204602 | 76 | 252 | 4.3 | 13.9 | 0.00 | 0.00 | 0.00 | 54 | 1012.9 |
| 20260901203106 | 76 | 202 | 1.7 | 13.0 | 0.00 | 0.00 | 0.00 | 54 | 1013.2 |
| 20260901201557 | 77 | 250 | 4.3 | 13.9 | 0.00 | 0.00 | 0.00 | 51 | 1013.0 |
| 20260901200104 | 77 | 258 | 3.5 | 13.9 | 0.00 | 0.00 | 0.00 | 53 | 1013.0 |
| 20260901194605 | 77 | 249 | 2.6 | 13.0 | 0.00 | 0.00 | 0.00 | 54 | 1013.1 |
| 20260901193108 | 77 | 298 | 5.2 | 13.9 | 0.00 | 0.00 | 0.00 | 52 | 1013.2 |
| 20260901191606 | 77 | 222 | 2.6 | 9.6 | 0.00 | 0.00 | 0.00 | 54 | 1013.1 |
| 20260901184603 | 76 | 45 | 0.9 | 9.6 | 0.00 | 0.00 | 0.00 | 56 | 1013.4 |
| 20260901183055 | 77 | 225 | 2.6 | 13.0 | 0.00 | 0.00 | 0.00 | 56 | 1013.4 |
| 20260901181607 | 76 | 290 | 2.6 | 10.4 | 0.00 | 0.00 | 0.00 | 56 | 1013.5 |
| 20260901180105 | 76 | 258 | 3.5 | 12.2 | 0.00 | 0.00 | 0.00 | 57 | 1013.5 |
| 20260901174603 | 76 | 180 | 4.3 | 13.0 | 0.00 | 0.00 | 0.00 | 55 | 1013.5 |
| 20260901173058 | 75 | 137 | 3.5 | 13.0 | 0.00 | 0.00 | 0.00 | 56 | 1013.6 |
| 20260901171555 | 75 | 207 | 3.5 | 9.6 | 0.00 | 0.00 | 0.00 | 58 | 1013.8 |
| 20260901170120 | 75 | 273 | 2.6 | 10.4 | 0.00 | 0.00 | 0.00 | 58 | 1014.0 |
| 20260901164607 | 74 | 215 | 2.6 | 13.9 | 0.00 | 0.01 | 0.00 | 60 | 1014.0 |
| 20260901163100 | 74 | 302 | 2.6 | 11.3 | 0.00 | 0.01 | 0.00 | 63 | 1014.1 |